Location: Unspecified
(0.0000°N, 0.0000°E)
Time: 17:49:29
(UTC+00:00)

Tiros 1 despin weight - Visible Passes

Search period start: 24 April 2024 00:00
Search period end: 04 May 2024 00:00
Orbit: 579 x 622 km, 48.2° (Epoch: 23 April)

Date Brightness Start Highest point End Pass type
(mag) Time Alt. Az. Time Alt. Az. Time Alt. Az.
24 Apr ? 19:02:53 10° N 19:06:46 27° NE 19:07:36 26° ENE visible
24 Apr ? 20:44:16 10° W 20:44:20 10° W 20:44:20 10° W visible
25 Apr ? 19:13:04 10° NNW 19:17:36 66° NE 19:18:47 46° ESE visible
26 Apr ? 19:23:59 10° NW 19:28:24 50° SW 19:30:00 34° S visible
27 Apr ? 19:35:42 10° W 19:39:13 22° SW 19:41:13 16° SSW visible
29 Apr ? 18:15:19 10° NW 18:19:44 50° SW 18:24:10 10° SSE visible
30 Apr ? 04:41:18 10° S 04:44:12 17° SE 04:47:05 10° E visible
30 Apr ? 18:27:01 10° W 18:30:30 21° SW 18:34:00 10° S visible
01 May ? 04:51:09 12° SSW 04:54:58 41° SE 04:59:02 10° ENE visible
02 May ? 05:02:17 16° SW 05:05:41 77° NW 05:09:59 10° NE visible
03 May ? 03:36:37 16° ESE 03:36:37 16° ESE 03:38:18 10° E visible
03 May ? 05:13:21 14° WSW 05:16:23 30° NW 05:20:10 10° N visible
